Weather Roundup
Issued by NWS Springfield, MO

Home | Current Version | Previous Version | Text Only | Print | Product List | Glossary On
Versions: 1 2 3 4 5 6 7 8 9 10 11 12 13 14 15 16 17 18 19 20 21 22 23 24 25 26 27 28 29 30 31 32 33 34 35 36 37 38 39 40 41 42 43 44 45 46 47 48 49 50
000
NZUS99 KSGF 010207
HRRSGF

HOURLY WEATHER
NATIONAL WEATHER SERVICE SPRINGFIELD MO
900 PM CDT THU JUL 31 2014

......SGF CWA......

CITY           SKY/WX    TMP DP  RH WIND       PRES   REMARKS
SPRINGFIELD    CLEAR     70  64  81 S6        30.06S
JOPLIN         CLEAR     72  67  84 S5        30.06R
WEST PLAINS    PTCLDY    67  63  87 CALM      30.09R
ROLLA          MOCLDY    74  55  51 E5        30.04S
OSAGE BEACH      N/A     72  57  60 NE3       30.04S
BRANSON        MOCLDY    68  66  94 E3        30.08S

......SURROUNDING SGF CWA......

CITY           SKY/WX    TMP DP  RH WIND       PRES   REMARKS
CHANUTE        CLEAR     69  61  75 SE3       30.04F
PARSONS        CLEAR     70  63  78 CALM      30.05S
COFFEYVILLE    PTCLDY    74  68  81 S6        30.04R
EMPORIA        CLEAR     71  58  63 SE6       30.04F
GROVE OK       CLEAR     72  70  94 CALM      30.06S
ROGERS AR      CLOUDY    68  66  93 CALM      30.08S
SILOAM SPRINGS CLOUDY    70  63  78 CALM      30.07S
HARRISON AR    CLOUDY    67  66  97 SE6       30.08R
NEAR YELLVILLE MOCLDY    66  64  94 CALM      30.07S

......KANSAS AND MISSOURI......

CITY           SKY/WX    TMP DP  RH WIND       PRES   REMARKS
KANSAS CTY INT CLOUDY    76  56  49 E6        30.05R
DOWNTOWN KC    MOCLDY    78  56  46 E5        30.03R
COLUMBIA       CLEAR     73  58  59 N6        30.05S
SEDALIA        PTCLDY    72  60  66 NE5       30.06R
ST JOSEPH      MOCLDY    75  60  59 SE5       30.03F
ST LOUIS       PTCLDY    79  60  52 E5        30.05S
SPIRIT OF STL  MOCLDY    75  59  57 E5        30.03S
KIRKSVILLE     CLEAR     67  62  84 CALM      30.06S
WICHITA        PTCLDY    73  56  54 SE6       30.05R
TOPEKA         PTCLDY    76  58  53 CALM      30.03R
OLATHE         PTCLDY    74  59  59 SE5       30.04S

......TENNESSEE......

CITY           SKY/WX    TMP DP  RH WIND       PRES   REMARKS
MEMPHIS        CLOUDY    74  65  73 N5        30.06R
NASHVILLE      MOCLDY    74  61  63 SW3       30.06S

......ARKANSAS.......

CITY           SKY/WX    TMP DP  RH WIND       PRES   REMARKS
FAYETTEVILLE   CLOUDY    68  67  96 CALM      30.06S
FT SMITH       CLOUDY    71  65  81 E5        30.04S
LITTLE ROCK    RAIN      70  67  90 SE5       30.06S FOG

......OKLAHOMA.......

CITY           SKY/WX    TMP DP  RH WIND       PRES   REMARKS
TULSA          MOCLDY    73  66  78 CALM      30.03R
PONCA CITY     CLEAR     73  64  73 CALM      30.04S
MCALESTER      PTCLDY    70  66  87 CALM      30.05R
OKLAHOMA CITY  PTCLDY    71  65  81 NE6       30.05S

......IOWA............

CITY           SKY/WX    TMP DP  RH WIND       PRES   REMARKS
DES MOINES     CLOUDY    71  63  75 CALM      30.03F
QUAD CITIES    PTCLDY    71  62  73 CALM      30.03S

......ILLINOIS........

CITY           SKY/WX    TMP DP  RH WIND       PRES   REMARKS
QUINCY         CLEAR     74  60  61 E3        30.05S
CHICAGO        PTCLDY    74  56  53 W5        30.02S



USA.gov is the U.S. government's official web portal to all federal, state and local government web resources and services.